Year,Month,Day,Hour,Minute,Value (Times are PST for temperature in C)
2018,07,09,00,00,16.80
2018,07,09,00,01,16.80
2018,07,09,00,02,16.80
2018,07,09,00,03,16.70
2018,07,09,00,04,16.70
2018,07,09,00,05,16.70
2018,07,09,00,06,16.70
2018,07,09,00,07,16.70
2018,07,09,00,30,16.40
2018,07,09,01,30,15.60
2018,07,09,01,31,15.60
2018,07,09,01,32,15.60
2018,07,09,01,33,15.60
2018,07,09,01,34,15.60
2018,07,09,01,35,15.60
2018,07,09,01,36,15.60
2018,07,09,01,37,15.60
2018,07,09,01,38,15.50
2018,07,09,01,39,15.50
2018,07,09,01,40,15.50
2018,07,09,01,41,15.50
2018,07,09,01,42,15.50
2018,07,09,01,43,15.50
2018,07,09,01,44,15.50
2018,07,09,01,45,15.50
2018,07,09,01,46,15.50
2018,07,09,01,47,15.50
2018,07,09,01,48,15.50
2018,07,09,01,49,15.50
2018,07,09,01,50,15.50
2018,07,09,01,51,15.50
2018,07,09,01,52,15.50
2018,07,09,01,53,15.50
2018,07,09,01,54,15.50
2018,07,09,01,55,15.50
2018,07,09,01,56,15.50
2018,07,09,01,57,15.50
2018,07,09,01,58,15.50
2018,07,09,01,59,15.50
2018,07,09,02,00,15.50
2018,07,09,02,01,15.50
2018,07,09,02,02,15.50
2018,07,09,02,03,15.50
2018,07,09,02,04,15.50
2018,07,09,02,30,15.80
2018,07,09,02,31,15.80
2018,07,09,02,32,15.80
2018,07,09,02,33,15.80
2018,07,09,02,34,15.80
2018,07,09,02,35,15.80
2018,07,09,02,36,15.80
2018,07,09,02,37,15.80
2018,07,09,02,38,15.80
2018,07,09,02,39,15.80
2018,07,09,02,40,15.80
2018,07,09,02,41,15.80
2018,07,09,02,42,15.80
2018,07,09,02,43,15.70
2018,07,09,02,44,15.70
2018,07,09,02,45,15.70
2018,07,09,02,46,15.70
2018,07,09,02,47,15.60
2018,07,09,02,48,15.60
2018,07,09,02,49,15.60
2018,07,09,02,50,15.60
2018,07,09,02,51,15.60
2018,07,09,02,52,15.50
2018,07,09,02,53,15.50
2018,07,09,02,54,15.50
2018,07,09,02,55,15.50
2018,07,09,02,56,15.50
2018,07,09,02,57,15.40
2018,07,09,02,58,15.40
2018,07,09,02,59,15.40
2018,07,09,03,00,15.40
2018,07,09,03,01,15.40
2018,07,09,03,02,15.40
2018,07,09,03,03,15.40
2018,07,09,03,04,15.40
2018,07,09,03,05,15.30
2018,07,09,03,06,15.30
2018,07,09,03,07,15.30
2018,07,09,03,08,15.30
2018,07,09,03,09,15.30
2018,07,09,03,30,15.10
2018,07,09,03,31,15.10
2018,07,09,03,32,15.10
2018,07,09,03,33,15.10
2018,07,09,03,34,15.10
2018,07,09,03,35,15.10
2018,07,09,03,36,15.10
2018,07,09,03,37,15.10
2018,07,09,03,38,15.10
2018,07,09,03,39,15.10
2018,07,09,03,40,15.10
2018,07,09,03,41,15.10
2018,07,09,03,42,15.10
2018,07,09,03,43,15.20
2018,07,09,03,44,15.20
2018,07,09,03,45,15.20
2018,07,09,03,46,15.20
2018,07,09,03,47,15.20
2018,07,09,03,48,15.20
2018,07,09,03,49,15.10
2018,07,09,03,50,15.10
2018,07,09,03,51,15.10
2018,07,09,03,52,15.10
2018,07,09,03,53,15.10
2018,07,09,03,54,15.10
2018,07,09,03,55,15.10
2018,07,09,03,56,15.10
2018,07,09,03,57,15.10
2018,07,09,03,58,15.10
2018,07,09,03,59,15.00
2018,07,09,04,00,15.00
2018,07,09,04,01,15.00
2018,07,09,04,02,15.00
2018,07,09,04,03,15.00
2018,07,09,04,04,14.90
2018,07,09,04,05,14.90
2018,07,09,04,06,14.90
2018,07,09,04,07,14.90
2018,07,09,04,08,14.90
2018,07,09,04,09,14.90
2018,07,09,04,10,14.80
2018,07,09,04,11,14.80
2018,07,09,04,12,14.80
2018,07,09,04,13,14.80
2018,07,09,04,14,14.80
2018,07,09,04,15,14.80
2018,07,09,04,16,14.80
2018,07,09,04,17,14.80
2018,07,09,04,18,14.80
2018,07,09,04,19,14.80
2018,07,09,04,20,14.80
2018,07,09,04,21,14.80
2018,07,09,04,22,14.80
2018,07,09,04,23,14.80
2018,07,09,04,24,14.80
2018,07,09,04,25,14.80
2018,07,09,04,26,14.80
2018,07,09,04,27,14.80
2018,07,09,04,28,14.80
2018,07,09,04,29,14.80
2018,07,09,04,30,14.80
2018,07,09,04,31,14.80
2018,07,09,04,32,14.80
2018,07,09,04,33,14.80
2018,07,09,04,34,14.80
2018,07,09,04,35,14.80
2018,07,09,04,36,14.80
2018,07,09,04,37,14.80
2018,07,09,04,38,14.80
2018,07,09,04,39,14.80
2018,07,09,04,40,14.80
2018,07,09,04,41,14.80
2018,07,09,04,42,14.80
2018,07,09,04,43,14.80
2018,07,09,04,44,14.80
2018,07,09,04,45,14.80
2018,07,09,04,46,14.80
2018,07,09,04,47,14.80
2018,07,09,04,48,14.80
2018,07,09,04,49,14.80
2018,07,09,04,50,14.80
2018,07,09,04,51,14.80
2018,07,09,04,52,14.80
2018,07,09,04,53,14.80
2018,07,09,04,54,14.80
2018,07,09,04,55,14.80
2018,07,09,04,56,14.80
2018,07,09,04,57,14.80
2018,07,09,04,58,14.80
2018,07,09,04,59,14.80
2018,07,09,05,00,14.70
2018,07,09,05,01,14.70
2018,07,09,05,02,14.70
2018,07,09,05,03,14.70
2018,07,09,05,04,14.70
2018,07,09,05,05,14.70
2018,07,09,05,06,14.70
2018,07,09,05,07,14.70
2018,07,09,05,08,14.70
2018,07,09,05,09,14.70
2018,07,09,05,30,14.50
2018,07,09,05,31,14.50
2018,07,09,05,32,14.50
2018,07,09,05,33,14.50
2018,07,09,05,34,14.50
2018,07,09,05,35,14.50
2018,07,09,05,36,14.50
2018,07,09,05,37,14.50
2018,07,09,05,38,14.50
2018,07,09,05,39,14.50
2018,07,09,05,40,14.50
2018,07,09,05,41,14.50
2018,07,09,05,42,14.50
2018,07,09,05,43,14.50
2018,07,09,05,44,14.50
2018,07,09,05,45,14.50
2018,07,09,05,46,14.50
2018,07,09,05,47,14.50
2018,07,09,05,48,14.50
2018,07,09,05,49,14.50
2018,07,09,05,50,14.50
2018,07,09,05,51,14.50
2018,07,09,05,52,14.50
2018,07,09,05,53,14.50
2018,07,09,05,54,14.50
2018,07,09,05,55,14.50
2018,07,09,05,56,14.50
2018,07,09,05,57,14.50
2018,07,09,05,58,14.50
2018,07,09,05,59,14.50
2018,07,09,06,00,14.50
2018,07,09,06,01,14.50
2018,07,09,06,02,14.50
2018,07,09,06,03,14.50
2018,07,09,06,04,14.50
2018,07,09,06,05,14.50
2018,07,09,06,06,14.50
2018,07,09,06,07,14.50
2018,07,09,06,08,14.50
2018,07,09,06,09,14.60
2018,07,09,06,10,14.60
2018,07,09,06,11,14.60
2018,07,09,06,12,14.60
2018,07,09,06,13,14.60
2018,07,09,06,14,14.60
2018,07,09,06,15,14.60
2018,07,09,06,16,14.60
2018,07,09,06,17,14.60
2018,07,09,06,18,14.60
2018,07,09,06,19,14.60
2018,07,09,06,20,14.60
2018,07,09,06,21,14.60
2018,07,09,06,22,14.60
2018,07,09,06,23,14.60
2018,07,09,06,24,14.60
2018,07,09,06,25,14.60
2018,07,09,06,26,14.60
2018,07,09,06,27,14.70
2018,07,09,06,28,14.70
2018,07,09,06,29,14.70
2018,07,09,06,30,14.70
2018,07,09,07,30,15.60
2018,07,09,07,31,15.60
2018,07,09,07,32,15.70
2018,07,09,07,33,15.70
2018,07,09,07,34,15.70
2018,07,09,07,35,15.80
2018,07,09,07,36,15.80
2018,07,09,07,37,15.80
2018,07,09,07,38,15.80
2018,07,09,07,39,15.80
2018,07,09,07,40,15.90
2018,07,09,07,41,15.90
2018,07,09,07,42,16.10
2018,07,09,07,43,16.10
2018,07,09,07,44,16.10
2018,07,09,07,45,16.10
2018,07,09,07,46,16.20
2018,07,09,07,47,16.20
2018,07,09,07,48,16.30
2018,07,09,07,49,16.30
2018,07,09,07,50,16.40
2018,07,09,07,51,16.40
2018,07,09,07,52,16.40
2018,07,09,07,53,16.40
2018,07,09,07,54,16.40
2018,07,09,07,55,16.40
2018,07,09,07,56,16.40
2018,07,09,07,57,16.40
2018,07,09,07,58,16.40
2018,07,09,07,59,16.40
2018,07,09,08,30,17.30
2018,07,09,08,31,17.30
2018,07,09,08,32,17.40
2018,07,09,08,33,17.40
2018,07,09,08,34,17.50
2018,07,09,08,35,17.60
2018,07,09,08,36,17.70
2018,07,09,08,37,17.70
2018,07,09,08,38,17.80
2018,07,09,08,39,17.80
2018,07,09,08,40,17.80
2018,07,09,08,41,17.90
2018,07,09,08,42,17.90
2018,07,09,08,43,17.90
2018,07,09,08,44,17.90
2018,07,09,08,45,17.90
2018,07,09,08,46,17.90
2018,07,09,08,47,17.80
2018,07,09,08,48,17.80
2018,07,09,08,49,17.80
2018,07,09,08,50,17.80
2018,07,09,08,51,17.80
2018,07,09,08,52,17.80
2018,07,09,08,53,17.80
2018,07,09,08,54,17.80
2018,07,09,08,55,17.90
2018,07,09,08,56,17.90
2018,07,09,08,57,17.90
2018,07,09,08,58,17.90
2018,07,09,08,59,17.90
2018,07,09,09,00,17.90
2018,07,09,09,01,17.90
2018,07,09,09,02,17.90
2018,07,09,09,03,17.90
2018,07,09,09,04,17.90
2018,07,09,09,05,17.90
2018,07,09,09,06,17.90
2018,07,09,09,07,17.90
2018,07,09,09,08,17.90
2018,07,09,09,09,17.90
2018,07,09,09,10,17.90
2018,07,09,09,11,17.90
2018,07,09,09,12,18.10
2018,07,09,09,13,18.10
2018,07,09,09,14,18.10
2018,07,09,09,15,18.10
2018,07,09,09,16,17.90
2018,07,09,09,17,17.90
2018,07,09,09,18,18.10
2018,07,09,09,19,18.10
2018,07,09,09,20,18.10
2018,07,09,09,21,18.10
2018,07,09,09,22,18.20
2018,07,09,09,23,18.20
2018,07,09,09,24,18.20
2018,07,09,09,25,18.20
2018,07,09,09,26,18.20
2018,07,09,09,27,18.30
2018,07,09,09,28,18.30
2018,07,09,09,29,18.40
2018,07,09,09,30,18.40
2018,07,09,09,31,18.50
2018,07,09,09,32,18.50
2018,07,09,09,33,18.60
2018,07,09,09,34,18.60
2018,07,09,09,35,18.60
2018,07,09,09,36,18.70
2018,07,09,09,37,18.70
2018,07,09,09,38,18.70
2018,07,09,09,39,18.70
2018,07,09,09,40,18.70
2018,07,09,09,41,18.80
2018,07,09,09,42,18.80
2018,07,09,09,43,18.80
2018,07,09,09,44,18.80
2018,07,09,09,45,18.90
2018,07,09,09,46,18.90
2018,07,09,09,47,18.90
2018,07,09,09,48,18.90
2018,07,09,09,49,18.90
2018,07,09,09,50,18.90
2018,07,09,09,51,18.90
2018,07,09,09,52,18.90
2018,07,09,09,53,18.90
2018,07,09,09,54,18.90
2018,07,09,09,55,18.90
2018,07,09,09,56,19.10
2018,07,09,09,57,19.10
2018,07,09,09,58,19.10
2018,07,09,09,59,19.10
2018,07,09,10,00,19.10
2018,07,09,10,01,19.20
2018,07,09,10,02,19.30
2018,07,09,10,03,19.30
2018,07,09,10,04,19.40
2018,07,09,10,05,19.50
2018,07,09,10,06,19.50
2018,07,09,10,07,19.60
2018,07,09,10,08,19.70
2018,07,09,10,09,19.70
2018,07,09,10,30,19.60
2018,07,09,10,31,19.50
2018,07,09,10,32,19.50
2018,07,09,10,33,19.60
2018,07,09,10,34,19.60
2018,07,09,10,35,19.70
2018,07,09,10,36,19.70
2018,07,09,10,37,19.80
2018,07,09,10,38,19.80
2018,07,09,10,39,19.80
2018,07,09,10,40,19.90
2018,07,09,10,41,19.90
2018,07,09,10,42,19.90
2018,07,09,10,43,19.90
2018,07,09,10,44,19.90
2018,07,09,10,45,19.90
2018,07,09,10,46,20.10
2018,07,09,10,47,20.10
2018,07,09,10,48,20.10
2018,07,09,10,49,20.20
2018,07,09,10,50,20.20
2018,07,09,10,51,20.20
2018,07,09,10,52,20.20
2018,07,09,10,53,20.30
2018,07,09,10,54,20.40
2018,07,09,10,55,20.50
2018,07,09,10,56,20.60
2018,07,09,10,57,20.60
2018,07,09,10,58,20.70
2018,07,09,10,59,20.80
2018,07,09,11,00,20.90
2018,07,09,11,01,21.00
2018,07,09,11,02,21.10
2018,07,09,11,03,21.10
2018,07,09,11,04,21.20
2018,07,09,11,05,21.30
2018,07,09,11,06,21.30
2018,07,09,11,07,21.30
2018,07,09,11,08,21.30
2018,07,09,11,09,21.40
2018,07,09,11,10,21.40
2018,07,09,11,11,21.60
2018,07,09,11,12,21.60
2018,07,09,11,13,21.60
2018,07,09,11,14,21.60
2018,07,09,11,15,21.70
2018,07,09,11,16,21.70
2018,07,09,11,17,21.70
2018,07,09,11,18,21.80
2018,07,09,11,19,21.80
2018,07,09,11,20,21.80
2018,07,09,11,21,21.80
2018,07,09,11,22,21.80
2018,07,09,11,23,21.70
2018,07,09,11,24,21.70
2018,07,09,11,25,21.60
2018,07,09,11,26,21.60
2018,07,09,11,27,21.60
2018,07,09,11,28,21.60
2018,07,09,11,29,21.60
2018,07,09,11,30,21.40
2018,07,09,11,31,21.30
2018,07,09,11,32,21.30
2018,07,09,11,33,21.30
2018,07,09,11,34,21.30
2018,07,09,11,35,21.20
2018,07,09,11,36,21.20
2018,07,09,11,37,21.10
2018,07,09,11,38,21.10
2018,07,09,11,39,21.10
2018,07,09,11,40,21.10
2018,07,09,11,41,21.10
2018,07,09,11,42,21.10
2018,07,09,11,43,21.10
2018,07,09,11,44,21.10
2018,07,09,11,45,21.10
2018,07,09,11,46,21.20
2018,07,09,11,47,21.20
2018,07,09,11,48,21.30
2018,07,09,11,49,21.30
2018,07,09,11,50,21.60
2018,07,09,11,51,21.60
2018,07,09,11,52,21.70
2018,07,09,11,53,21.90
2018,07,09,11,54,22.00
2018,07,09,11,55,22.10
2018,07,09,11,56,22.20
2018,07,09,11,57,22.30
2018,07,09,11,58,22.40
2018,07,09,11,59,22.60
2018,07,09,12,00,22.70
2018,07,09,12,01,22.80
2018,07,09,12,02,22.80
2018,07,09,12,03,22.90
2018,07,09,12,04,22.90
2018,07,09,12,05,22.90
2018,07,09,12,06,22.90
2018,07,09,12,07,22.90
2018,07,09,12,08,22.90
2018,07,09,12,09,22.80
2018,07,09,12,10,22.70
2018,07,09,12,11,22.60
2018,07,09,12,12,22.50
2018,07,09,12,13,22.50
2018,07,09,12,14,22.40
2018,07,09,12,15,22.40
2018,07,09,12,16,22.30
2018,07,09,12,17,22.30
2018,07,09,12,18,22.20
2018,07,09,12,19,22.10
2018,07,09,12,20,22.10
2018,07,09,12,21,22.10
2018,07,09,12,22,22.00
2018,07,09,12,23,22.10
2018,07,09,12,24,22.10
2018,07,09,12,25,22.00
2018,07,09,12,26,22.00
2018,07,09,12,27,21.90
2018,07,09,12,28,21.90
2018,07,09,12,29,21.80
2018,07,09,12,30,21.80
2018,07,09,13,30,20.60
2018,07,09,13,31,20.60
2018,07,09,13,32,20.60
2018,07,09,13,33,20.60
2018,07,09,13,34,20.60
2018,07,09,13,35,20.60
2018,07,09,13,36,20.60
2018,07,09,13,37,20.60
2018,07,09,13,38,20.60
2018,07,09,13,39,20.60
2018,07,09,13,40,20.60
2018,07,09,13,41,20.60
2018,07,09,13,42,20.60
2018,07,09,13,43,20.60
2018,07,09,13,44,20.60
2018,07,09,13,45,20.60
2018,07,09,13,46,20.60
2018,07,09,13,47,20.50
2018,07,09,13,48,20.50
2018,07,09,13,49,20.50
2018,07,09,13,50,20.50
2018,07,09,13,51,20.40
2018,07,09,13,52,20.40
2018,07,09,13,53,20.40
2018,07,09,13,54,20.40
2018,07,09,13,55,20.40
2018,07,09,13,56,20.40
2018,07,09,13,57,20.40
2018,07,09,13,58,20.40
2018,07,09,13,59,20.40
2018,07,09,14,00,20.30
2018,07,09,14,01,20.30
2018,07,09,14,02,20.30
2018,07,09,14,03,20.30
2018,07,09,14,04,20.30
2018,07,09,14,05,20.30
2018,07,09,14,06,20.30
2018,07,09,14,07,20.20
2018,07,09,14,08,20.30
2018,07,09,14,09,20.30
2018,07,09,14,10,20.30
2018,07,09,14,11,20.30
2018,07,09,14,12,20.30
2018,07,09,14,13,20.30
2018,07,09,14,14,20.30
2018,07,09,14,15,20.30
2018,07,09,14,16,20.30
2018,07,09,14,17,20.30
2018,07,09,14,18,20.30
2018,07,09,14,19,20.30
2018,07,09,14,20,20.30
2018,07,09,14,21,20.30
2018,07,09,14,22,20.30
2018,07,09,14,23,20.30
2018,07,09,14,24,20.30
2018,07,09,14,25,20.30
2018,07,09,14,26,20.20
2018,07,09,14,27,20.20
2018,07,09,14,28,20.20
2018,07,09,14,29,20.20
2018,07,09,14,30,20.20
2018,07,09,14,31,20.20
2018,07,09,14,32,20.20
2018,07,09,14,33,20.20
2018,07,09,14,34,20.20
2018,07,09,14,35,20.20
2018,07,09,14,36,20.20
2018,07,09,14,37,20.20
2018,07,09,14,38,20.20
2018,07,09,14,39,20.20
2018,07,09,15,30,18.90
2018,07,09,15,31,18.90
2018,07,09,15,32,18.90
2018,07,09,15,33,18.90
2018,07,09,15,34,19.10
2018,07,09,15,35,19.10
2018,07,09,15,36,19.10
2018,07,09,15,37,19.10
2018,07,09,15,38,19.10
2018,07,09,15,39,19.10
2018,07,09,15,40,19.10
2018,07,09,15,41,19.10
2018,07,09,15,42,19.10
2018,07,09,15,43,19.10
2018,07,09,15,44,19.10
2018,07,09,15,45,19.10
2018,07,09,15,46,19.10
2018,07,09,15,47,19.10
2018,07,09,15,48,19.10
2018,07,09,15,49,19.10
2018,07,09,15,50,19.10
2018,07,09,15,51,19.10
2018,07,09,15,52,19.10
2018,07,09,15,53,19.10
2018,07,09,15,54,19.10
2018,07,09,15,55,19.20
2018,07,09,15,56,19.20
2018,07,09,15,57,19.20
2018,07,09,15,58,19.20
2018,07,09,15,59,19.20
2018,07,09,16,00,19.20
2018,07,09,16,01,19.30
2018,07,09,16,02,19.30
2018,07,09,16,03,19.30
2018,07,09,16,04,19.30
2018,07,09,16,05,19.30
2018,07,09,16,06,19.30
2018,07,09,16,07,19.30
2018,07,09,16,08,19.30
2018,07,09,16,09,19.40
2018,07,09,16,10,19.40
2018,07,09,16,11,19.40
2018,07,09,16,12,19.40
2018,07,09,16,13,19.40
2018,07,09,16,14,19.40
2018,07,09,16,15,19.40
2018,07,09,16,16,19.40
2018,07,09,16,17,19.40
2018,07,09,16,18,19.40
2018,07,09,16,19,19.40
2018,07,09,16,20,19.40
2018,07,09,16,21,19.40
2018,07,09,16,22,19.40
2018,07,09,16,23,19.40
2018,07,09,16,24,19.50
2018,07,09,16,25,19.50
2018,07,09,16,26,19.50
2018,07,09,16,27,19.50
2018,07,09,16,28,19.50
2018,07,09,16,29,19.50
2018,07,09,16,30,19.50
2018,07,09,16,31,19.50
2018,07,09,16,32,19.60
2018,07,09,16,33,19.60
2018,07,09,16,34,19.60
2018,07,09,16,35,19.60
2018,07,09,16,36,19.60
2018,07,09,16,37,19.60
2018,07,09,16,38,19.60
2018,07,09,16,39,19.70
2018,07,09,16,40,19.70
2018,07,09,16,41,19.70
2018,07,09,16,42,19.80
2018,07,09,16,43,19.80
2018,07,09,16,44,19.80
2018,07,09,16,45,19.80
2018,07,09,16,46,19.80
2018,07,09,16,47,19.80
2018,07,09,16,48,19.80
2018,07,09,16,49,19.80
2018,07,09,16,50,19.80
2018,07,09,16,51,19.80
2018,07,09,16,52,19.80
2018,07,09,16,53,19.80
2018,07,09,16,54,19.80
2018,07,09,16,55,19.80
2018,07,09,16,56,19.70
2018,07,09,16,57,19.70
2018,07,09,16,58,19.50
2018,07,09,16,59,19.40
2018,07,09,17,00,19.30
2018,07,09,17,01,19.20
2018,07,09,17,02,19.10
2018,07,09,17,03,19.10
2018,07,09,17,04,19.10
2018,07,09,17,05,19.10
2018,07,09,17,06,18.90
2018,07,09,17,07,18.90
2018,07,09,17,08,18.90
2018,07,09,17,09,18.80
2018,07,09,17,30,18.50
2018,07,09,17,31,18.50
2018,07,09,17,32,18.60
2018,07,09,17,33,18.60
2018,07,09,17,34,18.60
2018,07,09,17,35,18.60
2018,07,09,17,36,18.60
2018,07,09,17,37,18.60
2018,07,09,17,38,18.70
2018,07,09,17,39,18.70
2018,07,09,17,40,18.70
2018,07,09,17,41,18.70
2018,07,09,17,42,18.70
2018,07,09,17,43,18.70
2018,07,09,17,44,18.70
2018,07,09,17,45,18.70
2018,07,09,17,46,18.70
2018,07,09,17,47,18.70
2018,07,09,17,48,18.70
2018,07,09,17,49,18.70
2018,07,09,17,50,18.70
2018,07,09,17,51,18.70
2018,07,09,17,52,18.70
2018,07,09,17,53,18.70
2018,07,09,17,54,18.70
2018,07,09,17,55,18.70
2018,07,09,17,56,18.70
2018,07,09,17,57,18.70
2018,07,09,17,58,18.70
2018,07,09,17,59,18.70
2018,07,09,18,00,18.70
2018,07,09,18,01,18.70
2018,07,09,18,02,18.70
2018,07,09,18,03,18.70
2018,07,09,18,04,18.70
2018,07,09,18,05,18.70
2018,07,09,18,06,18.70
2018,07,09,18,07,18.70
2018,07,09,18,08,18.70
2018,07,09,18,09,18.70
2018,07,09,18,10,18.70
2018,07,09,18,11,18.70
2018,07,09,18,12,18.70
2018,07,09,18,13,18.60
2018,07,09,18,14,18.60
2018,07,09,18,15,18.60
2018,07,09,18,16,18.60
2018,07,09,18,17,18.50
2018,07,09,18,18,18.50
2018,07,09,18,19,18.50
2018,07,09,18,20,18.40
2018,07,09,18,21,18.40
2018,07,09,18,22,18.30
2018,07,09,18,23,18.30
2018,07,09,18,24,18.20
2018,07,09,18,25,18.20
2018,07,09,18,26,18.20
2018,07,09,18,27,18.20
2018,07,09,18,28,18.20
2018,07,09,18,29,18.20
2018,07,09,18,30,18.20
2018,07,09,19,30,16.80
2018,07,09,19,31,16.80
2018,07,09,19,32,16.80
2018,07,09,19,33,16.80
2018,07,09,19,34,16.80
2018,07,09,19,35,16.80
2018,07,09,19,36,16.80
2018,07,09,19,37,16.80
2018,07,09,19,38,16.80
2018,07,09,19,39,16.80
2018,07,09,19,40,16.80
2018,07,09,19,41,16.80
2018,07,09,19,42,16.90
2018,07,09,19,43,16.90
2018,07,09,19,44,16.90
2018,07,09,19,45,16.90
2018,07,09,19,46,17.00
2018,07,09,19,47,17.00
2018,07,09,19,48,17.00
2018,07,09,19,49,17.00
2018,07,09,19,50,17.00
2018,07,09,19,51,17.00
2018,07,09,19,52,17.00
2018,07,09,19,53,17.00
2018,07,09,19,54,16.90
2018,07,09,19,55,16.90
2018,07,09,19,56,16.90
2018,07,09,19,57,16.90
2018,07,09,19,58,16.80
2018,07,09,19,59,16.80
2018,07,09,20,00,16.80
2018,07,09,20,01,16.70
2018,07,09,20,02,16.70
2018,07,09,20,03,16.70
2018,07,09,20,04,16.70
2018,07,09,20,05,16.70
2018,07,09,20,06,16.60
2018,07,09,20,07,16.60
2018,07,09,20,08,16.40
2018,07,09,20,09,16.40
2018,07,09,20,10,16.40
2018,07,09,20,11,16.40
2018,07,09,20,12,16.30
2018,07,09,20,13,16.30
2018,07,09,20,14,16.30
2018,07,09,20,15,16.20
2018,07,09,20,16,16.20
2018,07,09,20,17,16.20
2018,07,09,20,18,16.20
2018,07,09,20,19,16.10
2018,07,09,20,20,16.10
2018,07,09,20,21,16.10
2018,07,09,20,22,16.10
2018,07,09,20,23,16.10
2018,07,09,20,24,16.10
2018,07,09,20,25,16.10
2018,07,09,20,26,16.10
2018,07,09,20,27,16.10
2018,07,09,20,28,16.10
2018,07,09,20,29,16.10
2018,07,09,20,30,16.10
2018,07,09,20,31,16.10
2018,07,09,20,32,16.10
2018,07,09,20,33,16.10
2018,07,09,20,34,16.10
2018,07,09,20,35,16.10
2018,07,09,20,36,16.10
2018,07,09,20,37,16.10
2018,07,09,20,38,16.10
2018,07,09,20,39,16.10
2018,07,09,20,40,16.10
2018,07,09,20,41,16.10
2018,07,09,20,42,16.10
2018,07,09,20,43,16.10
2018,07,09,20,44,16.10
2018,07,09,20,45,16.10
2018,07,09,20,46,16.10
2018,07,09,20,47,16.10
2018,07,09,20,48,16.10
2018,07,09,20,49,16.10
2018,07,09,20,50,16.20
2018,07,09,20,51,16.20
2018,07,09,20,52,16.20
2018,07,09,20,53,16.20
2018,07,09,20,54,16.20
2018,07,09,20,55,16.20
2018,07,09,20,56,16.30
2018,07,09,20,57,16.30
2018,07,09,20,58,16.30
2018,07,09,20,59,16.30
2018,07,09,21,00,16.30
2018,07,09,21,01,16.30
2018,07,09,21,02,16.40
2018,07,09,21,03,16.40
2018,07,09,21,04,16.40
2018,07,09,21,05,16.40
2018,07,09,21,06,16.40
2018,07,09,21,07,16.40
2018,07,09,21,08,16.40
2018,07,09,21,09,16.40
2018,07,09,21,10,16.40
2018,07,09,21,11,16.40
2018,07,09,21,12,16.40
2018,07,09,21,13,16.40
2018,07,09,21,14,16.40
2018,07,09,21,15,16.60
2018,07,09,21,16,16.60
2018,07,09,21,17,16.60
2018,07,09,21,18,16.60
2018,07,09,21,19,16.60
2018,07,09,21,20,16.60
2018,07,09,21,21,16.60
2018,07,09,21,22,16.60
2018,07,09,21,23,16.60
2018,07,09,21,24,16.70
2018,07,09,21,25,16.70
2018,07,09,21,26,16.70
2018,07,09,21,27,16.70
2018,07,09,21,28,16.70
2018,07,09,21,29,16.70
2018,07,09,21,30,16.70
2018,07,09,21,31,16.70
2018,07,09,21,32,16.70
2018,07,09,21,33,16.70
2018,07,09,21,34,16.70
2018,07,09,21,35,16.70
2018,07,09,21,36,16.70
2018,07,09,21,37,16.70
2018,07,09,21,38,16.70
2018,07,09,21,39,16.60
2018,07,09,21,40,16.60
2018,07,09,21,41,16.60
2018,07,09,21,42,16.60
2018,07,09,21,43,16.60
2018,07,09,21,44,16.60
2018,07,09,21,45,16.60
2018,07,09,21,46,16.60
2018,07,09,21,47,16.60
2018,07,09,21,48,16.60
2018,07,09,21,49,16.60
2018,07,09,21,50,16.60
2018,07,09,21,51,16.60
2018,07,09,21,52,16.60
2018,07,09,21,53,16.60
2018,07,09,21,54,16.60
2018,07,09,21,55,16.60
2018,07,09,21,56,16.60
2018,07,09,21,57,16.60
2018,07,09,21,58,16.60
2018,07,09,21,59,16.60
2018,07,09,22,00,16.60
2018,07,09,22,01,16.40
2018,07,09,22,02,16.40
2018,07,09,22,03,16.40
2018,07,09,22,04,16.40
2018,07,09,22,05,16.40
2018,07,09,22,06,16.40
2018,07,09,22,07,16.40
2018,07,09,22,08,16.40
2018,07,09,22,09,16.40
2018,07,09,22,10,16.40
2018,07,09,22,11,16.40
2018,07,09,22,12,16.40
2018,07,09,22,13,16.40
2018,07,09,22,14,16.40
2018,07,09,22,15,16.30
2018,07,09,22,16,16.30
2018,07,09,22,17,16.30
2018,07,09,22,18,16.30
2018,07,09,22,19,16.30
2018,07,09,22,20,16.30
2018,07,09,22,21,16.30
2018,07,09,22,22,16.20
2018,07,09,22,23,16.20
2018,07,09,22,24,16.20
2018,07,09,22,25,16.20
2018,07,09,22,26,16.20
2018,07,09,22,27,16.20
2018,07,09,22,28,16.20
2018,07,09,22,29,16.20
2018,07,09,22,30,16.10
2018,07,09,22,31,16.10
2018,07,09,22,32,16.10
2018,07,09,22,33,16.10
2018,07,09,22,34,16.10
2018,07,09,22,35,16.10
2018,07,09,22,36,16.10
2018,07,09,22,37,16.10
2018,07,09,22,38,16.10
2018,07,09,22,39,16.10
2018,07,09,22,40,16.10
2018,07,09,22,41,16.10
2018,07,09,22,42,16.10
2018,07,09,22,43,16.10
2018,07,09,22,44,16.10
2018,07,09,22,45,16.10
2018,07,09,22,46,16.10
2018,07,09,22,47,16.10
2018,07,09,22,48,15.90
2018,07,09,22,49,15.90
2018,07,09,22,50,15.90
2018,07,09,22,51,15.90
2018,07,09,22,52,15.90
2018,07,09,22,53,15.90
2018,07,09,22,54,15.90
2018,07,09,22,55,15.90
2018,07,09,22,56,15.90
2018,07,09,22,57,15.90
2018,07,09,22,58,15.90
2018,07,09,22,59,15.90
2018,07,09,23,00,15.90
2018,07,09,23,01,15.90
2018,07,09,23,02,15.90
2018,07,09,23,03,15.90
2018,07,09,23,04,15.90
2018,07,09,23,05,15.90
2018,07,09,23,06,15.90
2018,07,09,23,07,15.90
2018,07,09,23,08,15.90
2018,07,09,23,09,15.90
2018,07,09,23,10,15.90
2018,07,09,23,11,15.90
2018,07,09,23,12,15.90
2018,07,09,23,13,15.90
2018,07,09,23,14,15.90
2018,07,09,23,15,15.90
2018,07,09,23,16,15.90
2018,07,09,23,17,15.90
2018,07,09,23,18,15.90
2018,07,09,23,19,15.90
2018,07,09,23,20,15.90
2018,07,09,23,21,15.90
2018,07,09,23,22,15.90
2018,07,09,23,23,15.90
2018,07,09,23,24,15.80
2018,07,09,23,25,15.80
2018,07,09,23,26,15.80
2018,07,09,23,27,15.80
2018,07,09,23,28,15.80
2018,07,09,23,29,15.80
2018,07,09,23,30,15.80
2018,07,09,23,31,15.80
2018,07,09,23,32,15.80
2018,07,09,23,33,15.80
2018,07,09,23,34,15.80
2018,07,09,23,35,15.80
2018,07,09,23,36,15.80
2018,07,09,23,37,15.80
2018,07,09,23,38,15.80
2018,07,09,23,39,15.80
2018,07,09,23,40,15.80
2018,07,09,23,41,15.80
2018,07,09,23,42,15.80
2018,07,09,23,43,15.80
2018,07,09,23,44,15.80
2018,07,09,23,45,15.80
2018,07,09,23,46,15.80
2018,07,09,23,47,15.80
2018,07,09,23,48,15.80
2018,07,09,23,49,15.80
2018,07,09,23,50,15.80
2018,07,09,23,51,15.80
2018,07,09,23,52,15.80
2018,07,09,23,53,15.80
2018,07,09,23,54,15.80
2018,07,09,23,55,15.80
2018,07,09,23,56,15.80
2018,07,09,23,57,15.80
2018,07,09,23,58,15.80
2018,07,09,23,59,15.80
